Altoona, PA

3:57 AM EDT on October 14, 2019 (GMT -0400)
Altoona-Blair County

Weather History for KAOO - August, 2019

Change the Weather History Date:

Thursday, August 22, 2019

  Actual Average Record
Temperature  
Mean Temperature 76 °F 69 °F  
Max Temperature 84 °F 80 °F 95 °F (1983)
Min Temperature 67 °F 58 °F 41 °F (1982)
Degree Days  
Heating Degree Days 0 1  
Month to date heating degree days 0 14  
Since 1 June heating degree days 38 82  
Since 1 July heating degree days 0 24  
Cooling Degree Days 11 4  
Month to date cooling degree days 168 120  
Year to date cooling degree days 630 447  
Since 1 June cooling degree days 561 414  
Growing Degree Days 25 (Base 50)    
Moisture  
Dew Point 66 °F    
Average Humidity 71    
Maximum Humidity 93    
Minimum Humidity 48    
Precipitation  
Precipitation T in 0.09 in 1.64 in (1994)
Month to date precipitation 2.06 2.09  
Year to date precipitation 28.96 23.01  
Sea Level Pressure  
Sea Level Pressure 29.95 in    
Wind  
Wind Speed 7 mph (SW)    
Max Wind Speed 14 mph    
Max Gust Speed 17 mph    
Visibility 9 miles    
Events Rain    
T = Trace of Precipitation, MM = Missing Value Source: NWS Daily Summary

Daily Weather History Graph

Daily Weather History Graph

Search for Another Location

Airport or City:

Astronomy

Aug. 22, 2019 Rise Set
Actual Time 6:30 AM EDT 8:00 PM EDT
Civil Twilight 6:02 AM EDT 8:29 PM EDT
Nautical Twilight 5:27 AM EDT 9:03 PM EDT
Astronomical Twilight 4:51 AM EDT 9:40 PM EDT
Moon 11:48 PM EDT (8/22) 1:05 PM EDT (8/22)
Length of Visible Light 14h 27m
Length of Day
13h 29m
Waning Gibbous, 60% of the Moon is Illuminated
Aug 22
Waning Gibbous
Aug 23
Last Quarter
Aug 30
New
Sep 5
First Quarter
Sep 14
Full

Hourly Weather History & Observations

Time (EDT) Temp. Heat Index Dew Point Humidity Pressure Visibility Wind Dir Wind Speed Gust Speed Precip Events Conditions
12:53 AM 70.0 °F - 64.9 °F 84% 29.95 in 10.0 mi SSW 6.9 mph - N/A   Clear
1:53 AM 71.1 °F - 64.9 °F 81% 29.94 in 10.0 mi WSW 9.2 mph - N/A   Clear
2:53 AM 68.0 °F - 64.0 °F 87% 29.92 in 10.0 mi SSW 5.8 mph - N/A   Clear
3:53 AM 68.0 °F - 64.0 °F 87% 29.93 in 10.0 mi SSW 6.9 mph - N/A   Clear
4:15 AM 69.1 °F - 64.9 °F 87% 29.97 in 10.0 mi SSW 6.9 mph - N/A   Mostly Cloudy
4:41 AM 68.0 °F - 64.0 °F 87% 29.97 in 9.0 mi South 4.6 mph - N/A   Scattered Clouds
4:53 AM 66.9 °F - 64.0 °F 90% 29.94 in 9.0 mi SSW 5.8 mph - N/A   Clear
5:53 AM 69.1 °F - 64.9 °F 87% 29.95 in 9.0 mi South 5.8 mph - N/A   Overcast
6:53 AM 66.9 °F - 64.0 °F 90% 29.96 in 5.0 mi Calm Calm - N/A   Clear
7:53 AM 70.0 °F - 66.0 °F 87% 29.96 in 8.0 mi SSE 3.5 mph - N/A   Clear
8:53 AM 75.0 °F - 68.0 °F 79% 29.96 in 10.0 mi SW 9.2 mph - N/A   Clear
9:21 AM 75.9 °F - 66.9 °F 74% 30.00 in 10.0 mi SW 9.2 mph - N/A   Mostly Cloudy
9:53 AM 75.9 °F - 66.9 °F 74% 29.98 in 10.0 mi WSW 9.2 mph - N/A   Scattered Clouds
10:53 AM 79.0 °F - 66.9 °F 66% 29.98 in 10.0 mi SW 10.4 mph 17.3 mph N/A   Scattered Clouds
12:53 PM 82.9 °F 84.6 °F 64.9 °F 54% 29.96 in 10.0 mi West 10.4 mph - N/A   Mostly Cloudy
1:53 PM 84.0 °F 84.9 °F 63.0 °F 49% 29.93 in 10.0 mi WNW 8.1 mph - N/A   Partly Cloudy
2:53 PM 82.0 °F 83.8 °F 64.9 °F 56% 29.93 in 10.0 mi WNW 8.1 mph - N/A   Partly Cloudy
3:53 PM 84.0 °F 85.8 °F 64.9 °F 53% 29.91 in 10.0 mi West 4.6 mph - N/A   Mostly Cloudy
4:53 PM 81.0 °F 82.7 °F 64.9 °F 58% 29.92 in 10.0 mi WSW 5.8 mph - N/A   Mostly Cloudy
5:53 PM 72.0 °F - 66.9 °F 84% 29.94 in 10.0 mi Variable 3.5 mph - 0.03 in   Overcast
6:53 PM 73.9 °F - 66.0 °F 76% 29.94 in 10.0 mi NNW 4.6 mph - N/A   Mostly Cloudy
7:53 PM 70.0 °F - 66.9 °F 90% 29.95 in 10.0 mi Calm Calm - N/A   Mostly Cloudy
8:53 PM 70.0 °F - 66.9 °F 90% 29.97 in 8.0 mi Calm Calm - 0.01 in Rain Light Rain
9:53 PM 70.0 °F - 66.9 °F 90% 29.98 in 7.0 mi Calm Calm - 0.02 in Rain Light Rain
10:53 PM 70.0 °F - 66.9 °F 90% 29.98 in 5.0 mi ESE 3.5 mph - 0.01 in Rain Light Rain
11:53 PM 70.0 °F - 66.9 °F 90% 29.99 in 5.0 mi Calm Calm - 0.01 in   Overcast